User: anonymous   Login
Location: Unspecified
(0.0000°N, 0.0000°E)
Time: 22:07:01
(UTC+02:00)
Language:

Ariane 42L R/B - Orbit

View from above orbital plane
View from above orbital plane
View from above satellite
View from above satellite

Ground track
Ground track

The orbit data is extracted from the following two-line orbital elements,

1 26299U 00020B   17262.10508488  .00001811  00000-0  62718-3 0  9990
2 26299   7.4172 225.2240 5927284  27.0940 354.2060  4.11723701222964
Epoch (UTC): 19 September 2017 02:31:19
Eccentricity: 0.5927284
inclination: 7.4172°
perigee height: 319 km
apogee height: 19812 km
right ascension of ascending node: 225.2240°
argument of perigee: 27.0940°
revolutions per day: 4.11723701
mean anomaly at epoch: 354.2060°
orbit number at epoch: 22296

The dashed part of the orbit path shows where the satellite is in the earth's shadow,  

DLR